Flag for U.S.A. Weather past 2 weeks in Tyler, Texas, U.S.A.

Now
67 °F

Clear.


Feels Like: 67 °F
Forecast: 60 / 79 °F
Wind: 5 mph from Southeast

Location: Tyler Pounds Field


UV Index: 5 (Moderate)

Visibility: 10 mi


Pressure: 30.09 "Hg

Humidity: 61%

Dew point: 53 °F

Location of TylerLocation

Historic Weather in Tyler

°F

Tyler temperature yesterday

Maximum temperature yesterday: 76 °F (at 4:53 PM)
Minimum temperature yesterday: 56 °F (at 2:53 AM)
Average temperature yesterday: 66 °F

Past Weeks' High & Low Weather Summary

 TemperatureHumidityPressure
High82 °F (Apr 10, 2:53 PM)100% (Apr 6, 2:03 PM)30.31 "Hg (Apr 6, 2:03 PM)
Low34 °F (Apr 15, 6:53 AM)23% (Apr 15, 2:53 PM)29.65 "Hg (Apr 13, 4:53 PM)
Average60 °F64%30.01 "Hg
* Reported Apr 4 8:53 PM — Apr 19 8:53 PM, Tyler, Weather by CustomWeather, © 2014

Note: Actual official high and low records may vary slightly from our data, if they occured in-between our weather recording intervals... More about our weather records

Advertising

Historic Weather Conditions — Data for Previous 24 hours

 ConditionsComfort  
Time TempWeatherWind HumidityBarometerVisibility
8:53 PM
Apr 19
68 °FClear.5 mph59%30.08 "Hg10 mi
7:53 PM72 °FSunny.3 mph53%30.08 "Hg10 mi
6:53 PM74 °FSunny.3 mph48%30.08 "Hg10 mi
5:53 PM76 °FSunny.No wind40%30.09 "Hg10 mi
4:53 PM77 °FSunny.No wind37%30.09 "Hg10 mi
3:53 PM77 °FSunny.6 mph39%30.12 "Hg10 mi
2:53 PM75 °FScattered clouds.5 mph43%30.14 "Hg10 mi
1:53 PM76 °FPartly sunny.6 mph40%30.16 "Hg10 mi
12:53 PM74 °FPassing clouds.5 mph43%30.17 "Hg10 mi
11:53 AM73 °FBroken clouds.9 mph50%30.19 "Hg10 mi
10:53 AM72 °FPassing clouds.9 mph53%30.20 "Hg10 mi
9:53 AM69 °FSunny.8 mph57%30.20 "Hg10 mi
8:53 AM65 °FSunny.8 mph66%30.19 "Hg10 mi
7:53 AM57 °FSunny.No wind81%30.17 "Hg10 mi
6:53 AM53 °FClear.No wind83%30.15 "Hg10 mi
5:53 AM53 °FClear.No wind86%30.13 "Hg10 mi
4:53 AM55 °FClear.No wind83%30.13 "Hg10 mi
3:53 AM56 °FClear.No wind81%30.12 "Hg10 mi
2:53 AM58 °FClear.5 mph75%30.12 "Hg10 mi
1:53 AM60 °FClear.7 mph72%30.13 "Hg10 mi
12:53 AM62 °FClear.7 mph67%30.15 "Hg10 mi
11:53 PM
Apr 18
64 °FClear.9 mph63%30.15 "Hg10 mi
10:53 PM65 °FClear.7 mph56%30.14 "Hg10 mi
Weather by CustomWeather, © 2014

See weather overview